EZS87RQ EGPD-LSGG

Flight info

Callsign EZS87RQ
Flight time N/A
Altitude 37000
Route NAVEL DCT TOPPA DCT VELED N852 LNO Z283 RITAX UT27 ROUSY DCT MOROK Z24 AKITO
Aircraft A320/M-SDE3FGHIRWY/LB1

Departure

Time 2026-04-28 21:11
Airport Aberdeen International Airport (EGPD)

Arrival

Time N/A
Airport Geneva International Airport (LSGG)
Time Latitude Longitude Altitude Speed Heading
2026-04-28 20:46 57.20066 -2.20252 247 ft 0 kts 248°
2026-04-28 21:00 57.20068 -2.20242 247 ft 4 kts 248°
2026-04-28 21:00 57.20078 -2.20196 247 ft 3 kts 248°
2026-04-28 21:00 57.20084 -2.20159 247 ft 4 kts 284°
2026-04-28 21:00 57.20069 -2.20126 247 ft 4 kts 337°
2026-04-28 21:01 57.20060 -2.20119 247 ft 2 kts 338°
2026-04-28 21:05 57.20062 -2.20120 247 ft 2 kts 338°
2026-04-28 21:05 57.20092 -2.20142 247 ft 8 kts 339°
2026-04-28 21:05 57.20178 -2.20207 247 ft 19 kts 338°
2026-04-28 21:05 57.20335 -2.20326 247 ft 29 kts 337°
2026-04-28 21:06 57.20512 -2.20338 247 ft 20 kts 358°
2026-04-28 21:06 57.20654 -2.20454 247 ft 27 kts 341°
2026-04-28 21:06 57.20861 -2.20602 247 ft 36 kts 338°
2026-04-28 21:06 57.21005 -2.20631 247 ft 9 kts 59°
2026-04-28 21:07 57.21008 -2.20608 247 ft 1 kts 72°
2026-04-28 21:07 57.21008 -2.20606 247 ft 0 kts 72°
2026-04-28 21:09 57.21030 -2.20491 247 ft 19 kts 65°
2026-04-28 21:09 57.20997 -2.20370 248 ft 11 kts 164°
2026-04-28 21:09 57.20980 -2.20357 247 ft 0 kts 157°
2026-04-28 21:10 57.20976 -2.20354 247 ft 1 kts 157°
2026-04-28 21:10 57.20963 -2.20344 247 ft 8 kts 157°
2026-04-28 21:10 57.20664 -2.20121 248 ft 84 kts 158°
2026-04-28 21:10 57.19927 -2.19571 252 ft 142 kts 158°
2026-04-28 21:11 57.18892 -2.18770 411 ft 173 kts 157°
2026-04-28 21:11 57.17776 -2.17901 1065 ft 173 kts 158°
2026-04-28 21:11 57.16670 -2.17094 1726 ft 176 kts 159°
2026-04-28 21:11 57.15552 -2.15871 2010 ft 199 kts 139°
2026-04-28 21:12 57.14560 -2.14001 2354 ft 220 kts 131°
2026-04-28 21:12 57.13485 -2.11702 2766 ft 243 kts 130°
2026-04-28 21:12 57.12363 -2.09262 3469 ft 254 kts 129°
2026-04-28 21:12 57.11199 -2.06763 4303 ft 259 kts 129°
2026-04-28 21:13 57.10004 -2.04244 5160 ft 264 kts 130°
2026-04-28 21:13 57.08774 -2.01694 5997 ft 268 kts 130°
2026-04-28 21:13 57.07517 -1.99120 6851 ft 272 kts 130°
2026-04-28 21:13 57.06241 -1.96523 7644 ft 275 kts 130°
2026-04-28 21:14 57.04948 -1.93901 8473 ft 278 kts 130°
2026-04-28 21:14 57.03643 -1.91265 9298 ft 280 kts 129°
2026-04-28 21:14 57.02325 -1.88608 10132 ft 283 kts 129°
2026-04-28 21:14 57.00993 -1.85931 10853 ft 288 kts 129°
2026-04-28 21:15 56.99590 -1.83106 11082 ft 311 kts 129°
2026-04-28 21:15 56.98073 -1.80050 11257 ft 335 kts 129°
2026-04-28 21:15 56.96463 -1.76809 11562 ft 351 kts 129°
2026-04-28 21:15 56.94805 -1.73483 12174 ft 356 kts 129°
2026-04-28 21:16 56.93122 -1.70119 12831 ft 360 kts 129°
2026-04-28 21:16 56.91416 -1.66718 13491 ft 364 kts 129°
2026-04-28 21:16 56.89692 -1.63284 14149 ft 368 kts 129°
2026-04-28 21:16 56.87950 -1.59814 14739 ft 372 kts 129°
2026-04-28 21:17 56.86190 -1.56317 15338 ft 375 kts 129°
2026-04-28 21:17 56.84419 -1.52797 15937 ft 378 kts 129°
2026-04-28 21:17 56.82628 -1.49246 16534 ft 381 kts 128°
2026-04-28 21:17 56.80827 -1.45685 17129 ft 383 kts 128°
2026-04-28 21:18 56.79016 -1.42110 17720 ft 386 kts 128°
2026-04-28 21:18 56.77185 -1.38499 18307 ft 389 kts 128°
2026-04-28 21:18 56.75339 -1.34862 18898 ft 392 kts 128°
2026-04-28 21:18 56.73481 -1.31207 19402 ft 395 kts 128°
2026-04-28 21:19 56.71631 -1.27572 19889 ft 398 kts 128°
2026-04-28 21:19 56.69741 -1.23859 20364 ft 401 kts 128°
2026-04-28 21:19 56.67838 -1.20123 20847 ft 404 kts 128°
2026-04-28 21:19 56.65921 -1.16366 21303 ft 407 kts 128°
2026-04-28 21:20 56.63990 -1.12589 21759 ft 410 kts 128°
2026-04-28 21:20 56.62035 -1.08775 22202 ft 413 kts 129°
2026-04-28 21:20 56.60066 -1.04945 22640 ft 416 kts 129°
2026-04-28 21:20 56.58086 -1.01103 23053 ft 419 kts 129°
2026-04-28 21:21 56.56084 -0.97231 23473 ft 422 kts 129°
2026-04-28 21:21 56.54074 -0.93346 23871 ft 424 kts 129°
2026-04-28 21:21 56.52047 -0.89432 24239 ft 427 kts 129°
2026-04-28 21:21 56.50005 -0.85500 24564 ft 430 kts 129°
2026-04-28 21:22 56.47950 -0.81550 24892 ft 432 kts 129°
2026-04-28 21:22 56.45888 -0.77587 25217 ft 434 kts 129°
2026-04-28 21:22 56.43820 -0.73607 25535 ft 436 kts 129°
2026-04-28 21:22 56.42439 -0.70954 25742 ft 437 kts 129°
2026-04-28 21:23 56.39639 -0.65589 26161 ft 440 kts 129°
2026-04-28 21:23 56.37534 -0.61565 26465 ft 442 kts 129°
2026-04-28 21:23 56.35421 -0.57539 26768 ft 444 kts 129°
2026-04-28 21:23 56.33292 -0.53494 27057 ft 445 kts 129°
2026-04-28 21:24 56.31155 -0.49435 27343 ft 447 kts 129°
2026-04-28 21:24 56.29006 -0.45356 27623 ft 449 kts 129°
2026-04-28 21:24 56.26880 -0.41329 27888 ft 451 kts 129°
2026-04-28 21:24 56.24715 -0.37240 28152 ft 452 kts 129°
2026-04-28 21:25 56.22513 -0.33090 28406 ft 454 kts 129°
2026-04-28 21:25 56.20333 -0.28980 28663 ft 455 kts 129°
2026-04-28 21:25 56.18175 -0.24915 28890 ft 457 kts 129°
2026-04-28 21:25 56.15975 -0.20786 29119 ft 458 kts 129°
2026-04-28 21:26 56.13766 -0.16656 29428 ft 458 kts 129°
2026-04-28 21:26 56.11566 -0.12551 29755 ft 457 kts 129°
2026-04-28 21:26 56.09369 -0.08450 30077 ft 456 kts 129°
2026-04-28 21:26 56.07176 -0.04359 30412 ft 455 kts 129°
2026-04-28 21:27 56.04988 -0.00285 30715 ft 454 kts 129°
2026-04-28 21:27 56.02795 0.03786 30993 ft 453 kts 129°
2026-04-28 21:27 56.00607 0.07839 31263 ft 453 kts 129°
2026-04-28 21:27 55.98420 0.11881 31536 ft 452 kts 129°
2026-04-28 21:28 55.96238 0.15907 31805 ft 452 kts 129°
2026-04-28 21:28 55.94054 0.19939 32078 ft 451 kts 129°
2026-04-28 21:28 55.91873 0.23956 32352 ft 450 kts 128°
2026-04-28 21:28 55.89690 0.27962 32625 ft 450 kts 128°
2026-04-28 21:29 55.87510 0.31955 32902 ft 449 kts 128°
2026-04-28 21:29 55.85332 0.35944 33173 ft 449 kts 128°
2026-04-28 21:29 55.83160 0.39923 33443 ft 448 kts 128°
2026-04-28 21:29 55.80985 0.43896 33707 ft 447 kts 128°
2026-04-28 21:30 55.78821 0.47850 33983 ft 447 kts 128°
2026-04-28 21:30 55.76650 0.51808 34259 ft 446 kts 128°
2026-04-28 21:30 55.74512 0.55696 34508 ft 446 kts 128°
2026-04-28 21:30 55.72344 0.59633 34748 ft 445 kts 128°
2026-04-28 21:31 55.70181 0.63552 34973 ft 445 kts 128°
2026-04-28 21:31 55.68013 0.67470 35191 ft 445 kts 128°
2026-04-28 21:31 55.65841 0.71379 35404 ft 445 kts 128°
2026-04-28 21:31 55.63669 0.75277 35609 ft 445 kts 128°
2026-04-28 21:32 55.61497 0.79175 35805 ft 444 kts 128°
2026-04-28 21:32 55.59316 0.83062 36001 ft 446 kts 130°
2026-04-28 21:32 55.56924 0.86580 36188 ft 451 kts 136°
2026-04-28 21:32 55.54409 0.89924 36360 ft 451 kts 137°
2026-04-28 21:33 55.51899 0.93246 36537 ft 451 kts 137°
2026-04-28 21:33 55.49387 0.96564 36712 ft 451 kts 137°
2026-04-28 21:33 55.46876 0.99875 36874 ft 451 kts 137°
2026-04-28 21:33 55.44367 1.03187 37042 ft 451 kts 137°
2026-04-28 21:34 55.41856 1.06505 37203 ft 451 kts 137°
2026-04-28 21:34 55.39354 1.09808 37360 ft 450 kts 137°
2026-04-28 21:34 55.36843 1.13109 37508 ft 451 kts 137°
2026-04-28 21:34 55.34327 1.16413 37526 ft 453 kts 137°
2026-04-28 21:35 55.29269 1.23044 37524 ft 454 kts 137°
2026-04-28 21:35 55.24209 1.29650 37520 ft 454 kts 137°
2026-04-28 21:36 55.19997 1.35129 37519 ft 454 kts 137°
2026-04-28 21:36 55.14923 1.41703 37519 ft 454 kts 137°
2026-04-28 21:37 55.09839 1.48278 37522 ft 454 kts 137°
2026-04-28 21:37 55.04762 1.54826 37526 ft 454 kts 137°
2026-04-28 21:38 54.99678 1.61371 37522 ft 454 kts 137°
2026-04-28 21:38 54.94586 1.67891 37523 ft 454 kts 138°
2026-04-28 21:39 54.89493 1.74387 37520 ft 454 kts 138°
2026-04-28 21:39 54.84392 1.80875 37523 ft 454 kts 138°
2026-04-28 21:40 54.79285 1.87348 37523 ft 454 kts 138°
2026-04-28 21:40 54.74221 1.93757 37524 ft 454 kts 138°
2026-04-28 21:41 54.69701 1.99466 37514 ft 454 kts 138°